QPF
0.00 0.00 0.00 0.00 0.00 0.00 0.00 0.00 0.00 0.00 0.00 0.00 0.00 0.00 0.00 0.00 0.00 0.00 0.00 0.00 0.00 0.00 0.00 0.00 0.00 0.00 0.00 0.00 0.00 0.00 0.00 0.00 0.00 0.00 0.00 0.00 0.00 0.00 0.01 0.07 0.11 0.10 0.10 0.16
0.00 0.00 0.00 0.00 0.00 0.00 0.00 0.00 0.00 0.00 0.00 0.00 0.00 0.00 0.00 0.00 0.00 0.00 0.00 0.00 0.00 0.00 0.00 0.00 0.00 0.00 0.00 0.00 0.00 0.00 0.00 0.00 0.00 0.00 0.00 0.00 0.00 0.00 0.00 0.01 0.03 0.02 0.01 0.06
0.00 0.00 0.00 0.00 0.00 0.00 0.00 0.00 0.00 0.00 0.00 0.00 0.00 0.00 0.00 0.00 0.00 0.00 0.00 0.00 0.00 0.00 0.00 0.00 0.00 0.00 0.00 0.00 0.00 0.00 0.00 0.00 0.00 0.00 0.00 0.00 0.00 0.00 0.00 0.00 0.01 0.01 0.00 0.02
0.00 0.00 0.00 0.00 0.00 0.00 0.00 0.00 0.00 0.00 0.00 0.00 0.00 0.00 0.00 0.00 0.00 0.00 0.00 0.00 0.00 0.00 0.00 0.00 0.00 0.00 0.00 0.00 0.00 0.00 0.00 0.00 0.00 0.00 0.00 0.00 0.00 0.00 0.00 0.00 0.00 0.00 0.00 0.00
0.00 0.00 0.00 0.00 0.00 0.00 0.00 0.00 0.00 0.00 0.00 0.00 0.00 0.00 0.00 0.00 0.00 0.00 0.00 0.00 0.00 0.00 0.00 0.00 0.00 0.00 0.00 0.00 0.00 0.00 0.00 0.00 0.00 0.00 0.00 0.00 0.00 0.00 0.00 0.00 0.00 0.00 0.00 0.00
0.00 0.00 0.00 0.00 0.00 0.00 0.00 0.00 0.00 0.00 0.00 0.00 0.00 0.00 0.00 0.00 0.00 0.00 0.00 0.00 0.00 0.00 0.00 0.00 0.00 0.00 0.00 0.00 0.00 0.00 0.00 0.00 0.00 0.00 0.00 0.00 0.00 0.00 0.00 0.00 0.00 0.00 0.00 0.00
0.00 0.00 0.00 0.00 0.00 0.00 0.00 0.00 0.00 0.00 0.00 0.00 0.00 0.00 0.00 0.00 0.00 0.00 0.00 0.00 0.00 0.00 0.00 0.00 0.00 0.00 0.00 0.00 0.00 0.00 0.00 0.00 0.00 0.00 0.00 0.00 0.00 0.00 0.00 0.00 0.00 0.00 0.00 0.00
0.00 0.00 0.00 0.00 0.00 0.00 0.00 0.00 0.00 0.00 0.00 0.00 0.00 0.00 0.00 0.00 0.00 0.00 0.00 0.00 0.00 0.00 0.00 0.00 0.00 0.00 0.00 0.00 0.00 0.00 0.00 0.00 0.00 0.00 0.00 0.00 0.00 0.00 0.00 0.00 0.00 0.00 0.00 0.00
0.00 0.00 0.00 0.00 0.00 0.00 0.00 0.00 0.00 0.00 0.00 0.00 0.00 0.00 0.00 0.00 0.00 0.00 0.00 0.00 0.00 0.00 0.00 0.00 0.00 0.00 0.00 0.00 0.00 0.00 0.00 0.00 0.00 0.00 0.00 0.00 0.00 0.00 0.00 0.00 0.00 0.00 0.00 0.00
0.00 0.00 0.00 0.00 0.00 0.00 0.00 0.00 0.00 0.00 0.00 0.00 0.00 0.00 0.00 0.00 0.00 0.00 0.00 0.00 0.00 0.00 0.00 0.00 0.00 0.00 0.00 0.00 0.00 0.00 0.00 0.00 0.00 0.00 0.00 0.00 0.00 0.00 0.00 0.00 0.00 0.00 0.00 0.00
0.00 0.00 0.00 0.00 0.00 0.00 0.00 0.00 0.00 0.00 0.00 0.00 0.00 0.00 0.00 0.00 0.00 0.00 0.00 0.00 0.00 0.00 0.00 0.00 0.00 0.00 0.00 0.00 0.00 0.00 0.00 0.00 0.00 0.00 0.00 0.00 0.00 0.00 0.00 0.00 0.00 0.00 0.00 0.00
0.00 0.00 0.00 0.00 0.00 0.00 0.00 0.00 0.00 0.00 0.00 0.00 0.00 0.00 0.00 0.00 0.00 0.00 0.00 0.00 0.00 0.00 0.00 0.00 0.00 0.00 0.00 0.00 0.00 0.00 0.00 0.00 0.00 0.00 0.00 0.00 0.00 0.00 0.00 0.00 0.00 0.00 0.00 0.00
0.00 0.00 0.00 0.00 0.00 0.00 0.00 0.00 0.00 0.00 0.00 0.00 0.00 0.00 0.00 0.00 0.00 0.00 0.00 0.00 0.00 0.00 0.00 0.00 0.00 0.00 0.00 0.00 0.00 0.00 0.00 0.00 0.00 0.00 0.00 0.00 0.00 0.00 0.00 0.00 0.00 0.00 0.00 0.00
0.00 0.00 0.00 0.00 0.00 0.00 0.00 0.00 0.00 0.00 0.00 0.00 0.00 0.00 0.00 0.00 0.00 0.00 0.00 0.00 0.00 0.00 0.00 0.00 0.00 0.00 0.00 0.00 0.00 0.00 0.00 0.00 0.00 0.00 0.00 0.00 0.00 0.00 0.00 0.00 0.00 0.00 0.00 0.00
0.00 0.00 0.00 0.00 0.00 0.00 0.00 0.00 0.00 0.00 0.00 0.00 0.00 0.00 0.00 0.00 0.00 0.00 0.00 0.00 0.00 0.00 0.00 0.00 0.00 0.00 0.00 0.00 0.00 0.00 0.00 0.00 0.00 0.00 0.00 0.00 0.00 0.00 0.00 0.00 0.00 0.00 0.00 0.00
0.00 0.00 0.00 0.00 0.00 0.00 0.00 0.00 0.00 0.00 0.00 0.00 0.00 0.00 0.00 0.00 0.00 0.00 0.00 0.00 0.00 0.00 0.00 0.00 0.00 0.00 0.00 0.00 0.00 0.00 0.00 0.00 0.00 0.00 0.00 0.00 0.00 0.00 0.00 0.00 0.00 0.00 0.00 0.00
0.00 0.00 0.00 0.00 0.00 0.00 0.00 0.00 0.00 0.00 0.00 0.00 0.00 0.00 0.00 0.00 0.00 0.00 0.00 0.00 0.00 0.00 0.00 0.00 0.00 0.00 0.00 0.00 0.00 0.00 0.00 0.00 0.00 0.00 0.00 0.00 0.00 0.00 0.00 0.00 0.00 0.00 0.00 0.00
0.00 0.00 0.00 0.00 0.00 0.00 0.00 0.00 0.00 0.00 0.00 0.01 0.01 0.00 0.00 0.00 0.00 0.00 0.00 0.00 0.00 0.00 0.00 0.00 0.00 0.00 0.00 0.00 0.00 0.00 0.00 0.00 0.00 0.00 0.00 0.00 0.00 0.00 0.00 0.00 0.00 0.00 0.00 0.00
0.00 0.00 0.00 0.00 0.00 0.00 0.00 0.00 0.00 0.00 0.00 0.00 0.00 0.00 0.00 0.00 0.00 0.00 0.00 0.00 0.00 0.00 0.00 0.00 0.00 0.00 0.00 0.00 0.00 0.00 0.00 0.00 0.00 0.00 0.00 0.00 0.00 0.00 0.00 0.00 0.00 0.00 0.00 0.00
0.00 0.00 0.00 0.00 0.00 0.00 0.00 0.00 0.00 0.00 0.00 0.00 0.00 0.00 0.00 0.00 0.00 0.00 0.00 0.00 0.00 0.00 0.00 0.00 0.00 0.00 0.00 0.00 0.00 0.00 0.00 0.00 0.00 0.00 0.00 0.00 0.00 0.00 0.00 0.00 0.00 0.00 0.00 0.00
0.00 0.00 0.00 0.00 0.00 0.00 0.00 0.00 0.00 0.00 0.00 0.00 0.00 0.00 0.00 0.00 0.00 0.00 0.00 0.00 0.00 0.00 0.00 0.00 0.00 0.00 0.00 0.00 0.00 0.00 0.00 0.00 0.00 0.00 0.00 0.00 0.00 0.00 0.00 0.00 0.00 0.00 0.00 0.00
0.00 0.00 0.00 0.00 0.00 0.00 0.00 0.00 0.00 0.00 0.00 0.00 0.00 0.00 0.00 0.00 0.00 0.00 0.00 0.00 0.00 0.00 0.00 0.00 0.00 0.00 0.00 0.00 0.00 0.00 0.00 0.00 0.00 0.00 0.00 0.00 0.00 0.00 0.00 0.00 0.00 0.00 0.00 0.00
0.00 0.00 0.00 0.00 0.00 0.00 0.00 0.00 0.00 0.00 0.00 0.00 0.00 0.00 0.00 0.00 0.00 0.00 0.00 0.00 0.00 0.00 0.00 0.00 0.00 0.00 0.00 0.00 0.00 0.00 0.00 0.00 0.00 0.00 0.00 0.00 0.00 0.00 0.00 0.00 0.00 0.00 0.00 0.00
0.00 0.00 0.00 0.00 0.00 0.00 0.00 0.00 0.00 0.00 0.00 0.00 0.00 0.00 0.00 0.00 0.00 0.00 0.00 0.00 0.00 0.00 0.00 0.00 0.00 0.00 0.00 0.00 0.00 0.00 0.00 0.00 0.00 0.00 0.00 0.00 0.00 0.00 0.00 0.00 0.00 0.00 0.00 0.00
0.00 0.00 0.00 0.00 0.00 0.00 0.00 0.00 0.00 0.00 0.00 0.00 0.00 0.00 0.00 0.00 0.00 0.00 0.00 0.00 0.00 0.00 0.00 0.00 0.00 0.00 0.00 0.00 0.00 0.00 0.00 0.00 0.00 0.00 0.00 0.00 0.00 0.00 0.00 0.00 0.00 0.00 0.00 0.00
0.00 0.00 0.00 0.00 0.00 0.00 0.00 0.00 0.00 0.00 0.00 0.00 0.00 0.00 0.00 0.00 0.00 0.00 0.00 0.00 0.00 0.00 0.00 0.00 0.00 0.00 0.00 0.00 0.00 0.00 0.00 0.00 0.00 0.00 0.00 0.00 0.00 0.00 0.00 0.00 0.00 0.00 0.00 0.00
MSLP
1007.92 1008.52 1008.91 1009.02 1009.09 1009.15 1009.28 1009.46 1009.12 1008.18 1007.80 1007.85 1007.65 1007.45 1006.66 1005.89 1005.29 1005.28 1005.21 1005.45 1005.38 1005.15 1004.25 1003.93 1003.99 1004.43 1004.92 1005.39 1005.77 1005.97 1006.31 1006.57 1007.30 1008.18 1008.49 1008.67 1008.79 1009.03 1009.34 1009.56 1009.65 1009.85 1009.88 1010.13
1008.30 1008.36 1008.32 1008.58 1008.97 1009.08 1009.35 1009.38 1009.12 1008.13 1007.64 1007.96 1007.58 1007.57 1007.00 1006.27 1005.65 1005.50 1005.08 1005.40 1005.30 1005.04 1004.45 1004.18 1004.14 1004.62 1004.86 1004.85 1005.22 1005.66 1005.97 1006.38 1006.88 1007.31 1007.57 1007.74 1008.02 1008.22 1008.44 1008.99 1009.28 1009.20 1009.34 1009.45
1008.47 1008.03 1007.83 1008.36 1008.56 1008.95 1008.92 1009.16 1009.01 1008.85 1008.00 1008.07 1007.97 1007.96 1007.22 1006.32 1005.72 1005.22 1005.01 1005.15 1005.49 1005.42 1005.34 1004.75 1004.44 1004.48 1004.90 1005.05 1005.31 1005.38 1005.55 1005.98 1006.36 1006.55 1007.24 1007.69 1007.92 1008.47 1008.89 1009.16 1009.26 1009.26 1009.07 1009.10
1008.34 1007.65 1007.85 1008.18 1008.38 1008.60 1008.55 1008.32 1008.47 1008.68 1009.17 1009.27 1008.76 1008.87 1008.25 1007.19 1006.64 1005.99 1005.55 1005.44 1005.11 1004.97 1004.82 1004.66 1004.38 1004.46 1004.66 1004.86 1005.17 1005.60 1005.95 1006.31 1006.74 1007.08 1007.51 1007.90 1008.40 1009.21 1009.40 1009.54 1009.57 1009.49 1009.15 1009.12
1007.86 1007.44 1007.37 1007.44 1007.45 1007.70 1008.00 1007.72 1008.16 1008.88 1009.75 1009.84 1009.89 1010.05 1008.53 1007.77 1007.06 1006.72 1006.31 1005.89 1005.38 1005.19 1004.87 1004.45 1004.44 1004.21 1004.73 1004.82 1005.16 1005.70 1006.31 1006.75 1007.33 1007.42 1007.78 1008.34 1008.73 1009.09 1009.42 1009.62 1009.78 1009.81 1009.69 1009.46
1007.46 1007.04 1006.98 1006.92 1006.98 1007.33 1007.56 1008.06 1009.03 1010.05 1010.75 1011.01 1010.53 1010.26 1009.48 1008.27 1007.59 1007.10 1006.65 1006.56 1006.56 1005.90 1005.42 1005.26 1005.17 1005.27 1005.46 1005.32 1005.54 1006.33 1007.03 1007.62 1007.87 1008.09 1008.15 1008.20 1008.44 1008.86 1009.20 1009.51 1009.56 1009.60 1009.46 1009.38
1007.72 1007.28 1006.86 1006.74 1007.34 1007.77 1008.04 1009.25 1010.95 1011.88 1012.33 1011.85 1011.07 1010.94 1009.41 1008.28 1007.89 1007.58 1007.55 1007.60 1007.40 1007.10 1005.95 1005.82 1006.12 1006.57 1006.91 1007.15 1006.84 1006.98 1007.13 1007.76 1007.98 1007.96 1008.01 1008.07 1008.23 1008.54 1008.91 1009.35 1009.52 1009.55 1009.54 1009.41
1008.37 1008.16 1007.57 1007.25 1007.59 1008.27 1008.98 1010.15 1011.78 1012.61 1013.23 1012.72 1011.73 1010.77 1009.41 1008.89 1008.48 1008.34 1008.26 1008.60 1008.36 1008.15 1007.85 1007.37 1007.07 1006.91 1007.40 1007.70 1007.63 1007.67 1007.89 1007.91 1007.92 1008.05 1008.04 1007.94 1007.97 1008.20 1008.52 1008.93 1009.28 1009.29 1009.17 1008.92
1008.70 1008.72 1008.27 1008.01 1008.05 1008.62 1009.58 1010.76 1011.69 1012.89 1013.96 1013.76 1012.51 1011.00 1009.63 1009.08 1008.92 1008.91 1009.05 1009.09 1009.16 1009.10 1008.81 1008.38 1008.25 1007.95 1007.68 1007.89 1008.07 1008.14 1008.30 1008.27 1008.11 1007.94 1007.86 1007.77 1007.74 1007.97 1008.24 1008.51 1008.66 1008.64 1008.49 1008.27
1009.15 1009.59 1009.47 1009.08 1008.75 1009.28 1009.87 1010.97 1012.29 1013.68 1014.66 1014.71 1013.46 1012.05 1010.51 1010.04 1009.92 1009.62 1009.62 1009.38 1009.38 1009.13 1009.05 1008.98 1009.07 1008.87 1008.60 1008.12 1007.91 1008.08 1008.03 1007.89 1007.75 1007.61 1007.60 1007.74 1007.95 1007.94 1007.84 1008.06 1008.32 1008.31 1007.95 1007.82
1009.68 1010.44 1010.75 1010.30 1010.55 1011.03 1011.42 1011.95 1013.05 1014.08 1014.93 1014.81 1014.22 1012.26 1010.73 1010.66 1010.45 1010.25 1010.00 1009.69 1009.33 1009.24 1008.96 1008.61 1008.93 1008.80 1009.02 1008.92 1008.94 1008.97 1008.87 1008.54 1008.33 1008.04 1007.71 1007.65 1007.55 1007.43 1007.33 1007.53 1007.46 1007.38 1007.26 1007.34
1010.74 1011.43 1012.06 1011.91 1011.64 1011.64 1012.05 1012.93 1013.84 1014.85 1015.50 1015.24 1014.53 1012.75 1011.15 1010.83 1010.57 1010.35 1010.18 1009.78 1009.41 1009.23 1008.93 1008.83 1008.81 1009.03 1008.88 1008.80 1009.37 1009.15 1009.15 1008.51 1008.25 1008.18 1008.12 1008.10 1007.90 1007.70 1007.72 1007.42 1006.97 1006.82 1006.85 1006.69
1011.20 1012.57 1013.36 1013.05 1013.02 1012.82 1013.23 1013.70 1014.38 1015.04 1015.64 1015.47 1014.99 1012.80 1011.42 1010.78 1010.31 1010.12 1009.90 1009.43 1009.08 1009.03 1008.88 1008.88 1009.23 1009.24 1009.08 1009.02 1009.14 1009.14 1009.21 1008.72 1008.39 1008.28 1008.15 1007.94 1007.87 1007.79 1007.68 1007.46 1007.21 1007.15 1007.10 1006.71
1011.51 1013.26 1013.91 1014.05 1013.91 1014.12 1014.15 1014.18 1014.41 1015.03 1015.91 1015.10 1013.77 1012.79 1012.25 1011.66 1010.95 1010.31 1009.67 1009.54 1009.25 1009.24 1009.61 1009.64 1009.68 1009.73 1009.60 1009.57 1009.53 1009.39 1009.03 1008.79 1008.52 1008.30 1008.10 1007.94 1007.68 1007.46 1007.31 1007.02 1006.85 1006.72 1006.45 1006.36
1012.60 1014.15 1014.51 1014.44 1014.38 1014.25 1014.02 1013.78 1013.91 1014.40 1014.35 1014.22 1013.20 1012.32 1011.73 1011.36 1010.95 1010.72 1010.04 1009.98 1010.08 1010.08 1010.03 1010.08 1010.15 1010.14 1009.97 1009.88 1009.65 1009.49 1009.15 1008.81 1008.46 1008.06 1007.71 1007.41 1007.17 1006.85 1006.55 1006.36 1006.08 1005.91 1005.79 1005.57
1013.71 1014.73 1015.08 1015.02 1014.49 1014.17 1013.83 1013.34 1013.19 1013.10 1013.05 1012.61 1012.42 1011.60 1010.91 1010.62 1010.71 1010.84 1010.76 1010.70 1010.57 1010.44 1010.32 1010.19 1010.08 1009.95 1009.85 1009.68 1009.47 1009.18 1008.65 1008.35 1008.13 1007.80 1007.57 1007.15 1006.73 1006.37 1005.90 1005.48 1005.29 1005.12 1004.96 1004.81
1014.48 1015.32 1016.02 1015.78 1015.06 1014.45 1013.48 1012.16 1012.09 1011.96 1011.77 1011.72 1011.77 1011.26 1010.92 1010.90 1010.74 1010.82 1010.95 1011.00 1010.86 1010.83 1010.76 1010.70 1010.63 1010.39 1010.02 1009.66 1009.08 1008.65 1008.47 1008.33 1008.18 1007.79 1007.24 1006.80 1006.38 1005.89 1005.45 1005.03 1004.64 1004.24 1003.90 1003.77
1014.73 1015.68 1016.18 1016.18 1015.69 1014.74 1012.39 1011.57 1011.22 1011.35 1011.46 1011.44 1011.32 1011.21 1011.17 1011.06 1010.89 1010.84 1010.82 1010.91 1011.09 1011.23 1010.99 1010.71 1010.39 1010.07 1009.68 1009.21 1008.88 1008.76 1008.59 1008.07 1007.52 1006.98 1006.45 1006.06 1005.66 1005.19 1004.78 1004.33 1003.82 1003.38 1003.04 1002.62
1013.96 1015.19 1015.98 1016.20 1015.99 1014.08 1012.18 1011.69 1011.47 1011.42 1011.45 1011.33 1011.31 1011.22 1011.18 1011.12 1011.03 1010.69 1010.70 1010.99 1011.09 1011.04 1010.82 1010.54 1010.34 1009.97 1009.48 1009.15 1008.74 1008.51 1007.85 1007.26 1006.66 1006.09 1005.72 1005.38 1005.08 1004.67 1004.11 1003.47 1003.18 1002.91 1002.17 1001.23
1014.30 1014.62 1015.59 1016.23 1015.68 1014.28 1012.36 1011.72 1011.48 1011.67 1011.58 1011.13 1011.28 1011.26 1011.21 1011.51 1011.72 1011.28 1011.03 1011.05 1011.01 1010.80 1010.58 1010.39 1010.07 1009.67 1009.27 1008.76 1008.33 1007.95 1007.18 1006.66 1006.12 1005.66 1005.10 1004.80 1004.62 1003.84 1003.35 1003.09 1002.47 1001.93 1001.49 1000.68
1014.89 1015.29 1015.39 1015.40 1014.91 1013.62 1012.31 1011.80 1011.76 1012.21 1012.15 1011.25 1011.22 1011.27 1011.42 1011.80 1011.65 1011.21 1011.14 1011.05 1010.79 1010.48 1010.30 1010.01 1009.70 1009.37 1008.91 1008.26 1007.75 1007.15 1006.56 1005.95 1005.47 1005.09 1004.51 1004.03 1003.80 1003.29 1002.75 1002.31 1001.92 1001.42 1000.66 1000.01
1014.44 1014.91 1015.21 1015.19 1014.58 1013.54 1012.63 1012.06 1012.26 1011.93 1011.39 1011.30 1011.25 1011.23 1011.39 1011.36 1011.45 1011.34 1011.10 1010.88 1010.62 1010.28 1009.77 1009.53 1009.32 1008.79 1008.11 1007.64 1007.28 1006.48 1005.86 1005.48 1005.08 1004.47 1003.86 1003.41 1002.93 1002.41 1001.88 1001.47 1000.96 1000.58 999.98 999.23
1014.54 1014.28 1014.50 1014.52 1013.64 1012.89 1012.51 1012.44 1011.95 1011.79 1011.42 1011.12 1011.06 1011.00 1011.09 1011.34 1011.39 1011.21 1010.98 1010.68 1010.29 1009.98 1009.61 1009.34 1008.91 1008.07 1007.44 1007.13 1006.80 1006.01 1005.33 1005.01 1004.41 1003.76 1003.17 1002.69 1002.14 1001.58 1001.15 1000.75 1000.20 999.74 999.35 998.79
1014.21 1013.99 1014.04 1013.96 1012.97 1012.54 1012.05 1011.48 1011.40 1011.40 1011.13 1010.74 1010.77 1010.84 1011.07 1011.44 1011.35 1011.11 1010.87 1010.53 1010.18 1009.82 1009.46 1008.98 1008.40 1007.69 1006.94 1006.64 1006.26 1005.92 1005.16 1004.63 1003.93 1003.11 1002.48 1001.88 1001.35 1000.58 1000.27 999.81 999.25 998.89 998.46 998.01
1014.55 1014.14 1013.83 1013.47 1012.79 1012.33 1011.72 1011.38 1011.20 1010.91 1010.65 1010.80 1010.88 1011.03 1011.26 1011.30 1011.10 1010.96 1010.69 1010.46 1010.17 1009.62 1009.03 1008.57 1008.05 1007.32 1006.57 1006.08 1005.66 1005.28 1004.64 1004.04 1003.24 1002.42 1001.74 1001.07 1000.44 999.78 999.19 998.75 998.29 997.93 997.62 997.56
1014.07 1013.56 1013.63 1012.97 1012.18 1011.93 1011.48 1010.96 1010.72 1011.04 1010.98 1011.07 1011.25 1011.14 1011.12 1011.18 1011.05 1010.76 1010.57 1010.37 1009.95 1009.30 1008.69 1008.16 1007.65 1007.05 1006.22 1005.77 1005.13 1004.56 1004.06 1003.47 1002.79 1001.87 1000.95 1000.21 999.67 998.92 998.29 997.73 997.11 996.82 996.74 996.75
Thickness
5667 5655 5650 5663 5666 5668 5668 5661 5663 5681 5691 5691 5687 5689 5706 5718 5726 5725 5731 5734 5734 5739 5757 5767 5771 5768 5764 5762 5760 5759 5756 5755 5749 5742 5740 5741 5740 5739 5737 5736 5733 5731 5729 5725
5652 5648 5664 5666 5665 5663 5660 5656 5656 5677 5686 5677 5683 5685 5695 5714 5720 5720 5728 5730 5732 5739 5752 5756 5760 5756 5757 5760 5758 5754 5752 5748 5745 5743 5744 5744 5739 5735 5732 5728 5724 5724 5722 5721
5640 5657 5666 5661 5658 5656 5656 5650 5655 5661 5684 5683 5683 5672 5692 5710 5719 5722 5730 5730 5731 5734 5731 5738 5748 5749 5748 5749 5748 5748 5747 5745 5744 5744 5737 5732 5728 5722 5714 5713 5712 5711 5712 5711
5641 5655 5655 5653 5649 5651 5641 5665 5669 5664 5662 5644 5671 5636 5669 5690 5692 5706 5714 5718 5724 5727 5732 5736 5742 5741 5741 5742 5741 5737 5736 5734 5731 5728 5725 5720 5713 5703 5699 5700 5700 5700 5702 5702
5639 5649 5650 5648 5652 5659 5650 5670 5662 5661 5649 5649 5651 5631 5652 5676 5685 5691 5697 5705 5712 5717 5723 5728 5731 5735 5733 5733 5731 5728 5724 5721 5716 5715 5713 5707 5702 5697 5691 5689 5687 5686 5686 5690
5639 5658 5657 5654 5663 5661 5665 5661 5643 5634 5628 5618 5643 5637 5632 5661 5677 5681 5690 5690 5692 5699 5705 5710 5714 5716 5715 5718 5717 5711 5707 5702 5700 5699 5699 5700 5696 5691 5687 5681 5679 5679 5678 5677
5631 5640 5652 5657 5644 5644 5643 5626 5604 5605 5602 5606 5637 5624 5631 5662 5671 5672 5675 5674 5677 5682 5695 5700 5699 5695 5693 5692 5694 5694 5693 5688 5687 5690 5690 5690 5688 5683 5676 5671 5668 5668 5666 5665
5606 5607 5632 5645 5637 5629 5632 5619 5595 5594 5589 5603 5619 5615 5636 5650 5655 5657 5658 5655 5659 5662 5666 5673 5680 5682 5679 5677 5677 5677 5676 5676 5676 5676 5675 5675 5675 5673 5669 5663 5658 5657 5656 5656
5604 5609 5630 5632 5639 5637 5624 5606 5613 5594 5587 5583 5598 5620 5641 5640 5638 5639 5639 5640 5639 5640 5644 5653 5657 5660 5663 5662 5661 5661 5661 5661 5662 5663 5663 5662 5661 5657 5654 5650 5648 5647 5646 5645
5609 5598 5609 5620 5629 5624 5618 5613 5594 5577 5572 5567 5577 5595 5604 5622 5618 5623 5623 5627 5628 5633 5632 5633 5636 5639 5643 5649 5651 5649 5649 5650 5653 5655 5653 5649 5645 5643 5643 5639 5635 5633 5635 5636
5603 5594 5596 5605 5597 5592 5591 5587 5586 5578 5569 5557 5563 5580 5610 5606 5612 5613 5615 5622 5625 5626 5627 5629 5627 5629 5628 5628 5629 5630 5631 5635 5638 5637 5639 5635 5634 5631 5630 5627 5627 5627 5627 5625
5595 5583 5579 5588 5591 5595 5595 5586 5574 5548 5566 5568 5569 5572 5602 5601 5606 5609 5605 5609 5613 5616 5617 5621 5620 5620 5618 5618 5613 5615 5615 5619 5619 5619 5616 5614 5614 5614 5614 5615 5616 5615 5614 5612
5592 5569 5562 5571 5577 5581 5575 5577 5569 5559 5549 5555 5544 5565 5589 5595 5598 5598 5599 5604 5606 5608 5608 5606 5602 5603 5604 5605 5603 5602 5598 5601 5602 5601 5600 5600 5599 5598 5597 5597 5595 5592 5590 5592
5587 5564 5563 5554 5567 5559 5563 5565 5568 5557 5537 5539 5557 5566 5570 5571 5577 5583 5590 5590 5590 5590 5586 5585 5586 5586 5586 5586 5585 5585 5586 5585 5586 5586 5585 5583 5582 5582 5581 5580 5578 5577 5576 5574
5572 5559 5561 5561 5562 5563 5564 5565 5562 5550 5551 5543 5562 5563 5567 5562 5563 5567 5573 5572 5571 5572 5575 5573 5570 5569 5569 5568 5569 5569 5569 5569 5569 5569 5569 5569 5568 5567 5567 5567 5566 5564 5562 5561
5553 5549 5555 5554 5559 5558 5557 5560 5561 5560 5558 5557 5553 5557 5561 5564 5557 5554 5553 5554 5556 5557 5559 5561 5562 5562 5560 5559 5560 5561 5562 5560 5558 5557 5557 5557 5555 5555 5556 5556 5553 5551 5551 5549
5551 5535 5527 5540 5546 5545 5545 5557 5557 5559 5559 5555 5543 5548 5550 5548 5549 5547 5546 5546 5547 5545 5547 5546 5546 5546 5546 5547 5552 5550 5548 5543 5540 5540 5543 5544 5543 5543 5544 5544 5543 5543 5542 5538
5533 5526 5512 5524 5528 5524 5553 5560 5560 5556 5550 5546 5546 5545 5544 5544 5543 5541 5542 5541 5537 5534 5535 5535 5536 5536 5537 5538 5535 5530 5527 5529 5532 5534 5535 5534 5534 5534 5533 5531 5530 5529 5528 5529
5541 5525 5524 5506 5493 5530 5547 5546 5545 5542 5540 5539 5538 5539 5540 5539 5535 5538 5537 5534 5530 5528 5527 5527 5526 5527 5526 5523 5521 5520 5524 5525 5526 5527 5525 5526 5523 5521 5519 5516 5510 5506 5509 5517
5533 5535 5523 5507 5509 5514 5535 5541 5539 5532 5518 5534 5534 5533 5533 5526 5513 5515 5528 5522 5520 5519 5518 5517 5516 5515 5514 5515 5513 5513 5517 5516 5515 5516 5518 5514 5509 5510 5508 5503 5501 5499 5497 5503
5508 5506 5517 5514 5511 5515 5526 5531 5530 5508 5510 5528 5528 5525 5522 5516 5511 5518 5514 5512 5512 5512 5511 5510 5509 5507 5507 5509 5507 5510 5511 5511 5509 5507 5506 5504 5501 5500 5499 5497 5493 5491 5493 5495
5517 5519 5513 5507 5510 5511 5518 5519 5515 5510 5516 5518 5516 5516 5514 5511 5508 5507 5507 5505 5505 5505 5506 5505 5501 5506 5507 5505 5500 5503 5504 5500 5498 5498 5498 5496 5494 5492 5491 5488 5488 5486 5487 5490
5505 5505 5488 5490 5493 5506 5507 5503 5503 5503 5505 5512 5514 5512 5509 5504 5501 5500 5499 5499 5498 5497 5498 5498 5500 5503 5503 5497 5493 5495 5496 5493 5493 5492 5491 5489 5487 5486 5482 5478 5478 5479 5478 5480
5513 5505 5500 5500 5505 5500 5505 5506 5502 5502 5504 5511 5508 5505 5501 5492 5490 5490 5491 5491 5491 5493 5493 5495 5494 5495 5496 5493 5491 5487 5489 5487 5487 5487 5485 5483 5480 5479 5472 5470 5470 5470 5471 5473
5489 5496 5491 5484 5490 5494 5498 5496 5497 5500 5501 5496 5496 5493 5487 5482 5483 5484 5484 5484 5485 5489 5491 5490 5488 5489 5491 5491 5489 5486 5486 5485 5485 5484 5480 5476 5474 5473 5469 5465 5462 5459 5461 5461
5484 5482 5465 5466 5481 5485 5486 5495 5494 5489 5488 5485 5480 5479 5477 5476 5476 5478 5477 5477 5481 5484 5485 5485 5484 5484 5488 5488 5488 5487 5485 5482 5479 5477 5477 5473 5470 5466 5463 5461 5459 5456 5454 5455